• Processing (Info)

  • MPEC 2015-P13 : 2015 PM

    The following Minor Planet Electronic Circular may be linked-to from your own Web pages, but must not otherwise be redistributed electronically.

    A form allowing access to any MPEC is at the bottom of this page.


    Read MPEC 2015-P12 Read MPEC 2015-P14


    M.P.E.C. 2015-P13                                Issued 2015 Aug. 8, 19:19 UT
    
         The Minor Planet Electronic Circulars contain information on unusual
             minor planets and routine data on comets.  They are published
       on behalf of Commission 20 of the International Astronomical Union by the
              Minor Planet Center, Smithsonian Astrophysical Observatory,
                              Cambridge, MA 02138, U.S.A.
    
                 Prepared using the Tamkin Foundation Computer Network
    
                                  MPC@CFA.HARVARD.EDU
                URL https://www.minorplanetcenter.net/    ISSN 1523-6714
    
                                        2015 PM
    
    Observations:
         K15P00M* C2015 08 06.33620 17 12 04.938+00 49 53.63         20.5 wLEP013F51
         K15P00M  C2015 08 06.34808 17 12 01.325+00 49 50.22         20.6 wLEP013F51
         K15P00M  C2015 08 06.36007 17 11 57.724+00 49 46.67         20.5 wLEP013F51
         K15P00M  C2015 08 06.37207 17 11 54.095+00 49 43.09         20.5 wLEP013F51
         K15P00M KC2015 08 06.91158 17 09 16.96 +00 46 50.9                qEP013J95
         K15P00M KC2015 08 06.91734 17 09 15.18 +00 46 49.1                qEP013J95
         K15P00M KC2015 08 06.92699 17 09 12.31 +00 46 47.1          19.8 RqEP013J95
         K15P00M  C2015 08 07.13409 17 08 12.29 +00 45 49.1                oEP013711
         K15P00M  C2015 08 07.13642 17 08 11.59 +00 45 48.7                oEP013711
         K15P00M KC2015 08 07.15700 17 08 05.26 +00 45 38.8          19.9 RqEP013H36
         K15P00M KC2015 08 07.16340 17 08 03.33 +00 45 36.6          19.8 RqEP013H36
         K15P00M KC2015 08 07.17846 17 07 58.79 +00 45 31.1          19.8 RqEP013H36
         K15P00M KC2015 08 07.83822 17 04 46.39 +00 41 57.3          19.5 RoEP013461
         K15P00M KC2015 08 07.84564 17 04 44.15 +00 41 54.8          19.4 RoEP013461
         K15P00M KC2015 08 07.85306 17 04 41.95 +00 41 52.5          20.0 RoEP013461
         K15P00M KC2015 08 08.10522517 03 28.69 +00 40 30.7          20.5 VuEP013H21
         K15P00M KC2015 08 08.11529617 03 25.70 +00 40 26.9          20.6 VuEP013H21
         K15P00M KC2015 08 08.12537517 03 22.66 +00 40 23.7          20.3 VuEP013H21
         K15P00M KC2015 08 08.16049 17 03 12.39 +00 40 11.8          19.1 RqEP013H36
         K15P00M KC2015 08 08.17246 17 03 08.72 +00 40 07.8          19.7 RqEP013H36
         K15P00M KC2015 08 08.18231 17 03 05.81 +00 40 04.3          20.0 RqEP013H36
         K15P00M  C2015 08 08.33345 17 02 21.745+00 39 20.13         20.7 wLEP013F51
         K15P00M  C2015 08 08.34536 17 02 18.155+00 39 15.98         20.5 wLEP013F51
         K15P00M  C2015 08 08.35726 17 02 14.607+00 39 11.75         20.8 wLEP013F51
         K15P00M  C2015 08 08.36899 17 02 11.043+00 39 07.71         20.7 wLEP013F51
    
    Observer details:
    461 University of Szeged, Piszkesteto Stn. (Konkoly).  Observer A. Sodor.
        Measurer K. Sarneczky.  0.60-m Schmidt + CCD.
    711 McDonald Observatory.  Observer J. G. Ries.  2.1-m reflector + CCD + focal
        reducer.
    F51 Pan-STARRS 1, Haleakala.  Observers B. Gibson, T. Goggia, N. Primak,
        A. Schultz, M. Willman.  Measurers K. Chambers, S. Chastel, L. Denneau,
        H. Flewelling, M. Huber, E. Lilly, E. Magnier, R. Wainscoat, C. Waters,
        R. Weryk.  1.8-m Ritchey-Chretien + CCD.
    H21 Astronomical Research Observatory, Westfield.  Observer R. Holmes.
        Measurers S. Foglia, L. Buzzi, T. Linder, R. Holmes.  0.76-m f/3.0
        astrograph + CCD.
    H36 Sandlot Observatory, Scranton.  Observer G. Hug.  0.56-m reflector + CCD.
    J95 Great Shefford.  Observer P. Birtwhistle.  0.40-m f/6.0 Schmidt-Cassegrain
        + CCD.
    
    Orbital elements:
    2015 PM                                             PHA, Earth MOID = 0.0138 AU
    Epoch 2015 June 27.0 TT = JDT 2457200.5                 MPC
    M 286.77966              (2000.0)            P               Q
    n   0.64739397     Peri.  244.35623     +0.42011379     -0.90746953
    a   1.3233974      Node   180.80898     +0.87262477     +0.40454247
    e   0.6398099      Incl.    7.55984     +0.24905904     +0.11333331
    P   1.52           H   20.5           G   0.15           U   9
    Residuals in seconds of arc
    150806 F51  0.7+  0.1-    150807 H36  0.6+  0.4-    150808 H36  1.5+  0.4-
    150806 F51  0.2+  0.1-    150807 H36  0.5+  0.6-    150808 H36  0.1+  0.3-
    150806 F51  0.3+  0.1-    150807 H36  0.0   1.4-    150808 H36  0.7+  0.5-
    150806 F51  0.0   0.2-    150807 461  0.2+  0.2+    150808 F51  0.4+  0.0
    150806 J95  0.9+  0.3-    150807 461  0.2-  0.2+    150808 F51  0.2+  0.1-
    150806 J95  0.0   0.3-    150807 461  0.0   0.3+    150808 F51  0.6+  0.2-
    150806 J95  0.1+  0.7+    150808 H21  0.1+  0.1+    150808 F51  0.1-  0.2-
    150807 711  0.2+  0.2-    150808 H21  0.6+  0.3-
    150807 711  0.2+  0.1+    150808 H21  0.3+  0.1-
    
    Ephemeris:
    2015 PM                  a,e,i = 1.32, 0.64, 8                   q = 0.4767
    Date    TT    R. A. (2000) Decl.     Delta      r     Elong.  Phase     V
    2015 07 09    19 11 54.8 -00 05 42   0.4993  1.4906   157.6    15.0    20.7
    ...
    2015 07 24    18 15 13.4 +01 10 22   0.3964  1.3584   144.5    25.7    20.3
    ...
    2015 08 01    17 37 59.8 +01 09 02   0.3633  1.2817   130.7    36.9    20.3
    ...
    2015 08 07    17 08 51.7 +00 46 44   0.3471  1.2212   119.1    46.5    20.4
    2015 08 08    17 03 59.8 +00 41 22   0.3450  1.2109   117.1    48.2    20.4
    2015 08 09    16 59 08.5 +00 35 35   0.3430  1.2005   115.1    49.9    20.4
    ...
    2015 08 15    16 30 22.2 -00 06 58   0.3341  1.1366   103.2    60.2    20.6
    ...
    2015 08 23    15 53 08.5 -01 17 40   0.3275  1.0474    87.1    74.7    20.8
    ...
    2015 09 07    14 41 07.1 -03 29 54   0.3240  0.8690    55.9   106.1    21.7
    
    A. U. Tomatic                (C) Copyright 2015 MPC           M.P.E.C. 2015-P13
    

    Read MPEC 2015-P12 Read MPEC 2015-P14


    MPEC number:

    Enter an MPEC number in one of the following forms:

    • 1997-B01 (the full form)
    • J97B01 (the packed version of the full form)
    • B01 (the abbreviated form)